Overview Statistics Trail Chart Weather Telemetry Raw packets
 

This is the latest recevied weather packets stored in our database for station/object KD8DNS. If no packets are shown the sender has not sent any weather packets the latest 10 day(s).

<< 7 8 9 10 11 12 13 >>
Time Temp. Humidity Pressure Rain* Wind** Luminosity Snow
1788617927 21.11° C 99% 1015.5 hPa 0 mm - 181 W/m² -
1788617622 20.56° C 99% 1015.7 hPa 0 mm - 266 W/m² -
1788617318 20.56° C 99% 1015.8 hPa 0 mm - 192 W/m² -
1788617018 20.56° C 99% 1016.1 hPa 0 mm - 154 W/m² -
1788616716 20.56° C 99% 1016.3 hPa 0 mm - 107 W/m² -
1788616412 20.56° C 99% 1015 hPa 0 mm - 65 W/m² -
1788616107 20.56° C 99% 1015.2 hPa 0 mm - 47 W/m² -
1788615800 20.56° C 99% 1015.4 hPa 0 mm - 30 W/m² -
1788615495 20.56° C 99% 1016.3 hPa 0 mm - 13 W/m² -
1788615191 20.56° C 99% 1016.8 hPa 0 mm - 7 W/m² -
1788614889 20.56° C 99% 1017 hPa 0 mm - 6 W/m² -
1788614585 20.56° C 99% 1017.3 hPa 0 mm - 11 W/m² -
1788614280 20.56° C 99% 1017 hPa 0 mm - 16 W/m² -
1788613975 20.56° C 99% 1017.4 hPa 0 mm - 23 W/m² -
1788613670 20.56° C 99% 1017.8 hPa 0 mm - 32 W/m² -
1788613369 20.56° C 99% 1018.1 hPa 0 mm - 26 W/m² -
1788613064 20.56° C 99% 1018 hPa 0 mm - 38 W/m² -
1788612759 20° C 99% 1018.2 hPa 0 mm - 34 W/m² -
1788612456 20° C 99% 1018.3 hPa 0 mm - 29 W/m² -
1788612151 20.56° C 99% 1018.5 hPa 0 mm - 23 W/m² -
1788611846 20° C 99% 1018.4 hPa 0 mm - 27 W/m² -
1788611544 20° C 99% 1018.4 hPa 0 mm - 14 W/m² -
1788611243 20° C 99% 1018.7 hPa 0 mm - 10 W/m² -
1788610937 20° C 99% 1018.8 hPa 0 mm - 17 W/m² -
1788610632 20° C 99% 1019.2 hPa 0 mm - 18 W/m² -

* Rain latest hour (hover to see other rain measurements)
** Current wind speed in m/s (hover to see current wind gust speed)